1498273200.77,55490,17.44,73944.5,4.89,-16.83,-21.39,0,*70
1498273201.96,55491,17.44,73954.8,4.89,-16.89,-21.43,0,*76
1498273203.19,55492,17.44,73944.5,4.91,-16.83,-21.47,0,*72
1498273204.41,55493,17.38,73942.8,4.89,-16.83,-21.53,0,*7F
1498273205.63,55494,17.44,73942.8,4.89,-16.79,-21.53,0,*7D
1498273206.86,55495,17.44,73944.5,4.91,-16.79,-21.47,0,*70
1498273208.07,55496,17.44,73948.5,4.89,-16.89,-21.57,0,*74
1498273209.29,55497,17.38,73946.5,4.89,-16.89,-21.57,0,*75
1498273210.51,55498,17.44,73940.8,4.89,-16.89,-21.57,0,*7A
1498273211.73,55499,17.44,73944.8,4.89,-16.83,-21.67,0,*72
1498273212.96,55500,17.44,73944.0,4.89,-16.83,-21.67,0,*73
1498273214.18,55501,17.44,73950.8,4.87,-16.93,-21.63,0,*79
1498273215.4,55502,17.44,73950.8,4.87,-16.93,-21.63,0,*7A
1498273216.65,55503,17.44,73952.3,4.87,-16.75,-21.33,0,*76
1498273217.87,55504,17.44,73954.0,4.87,-16.83,-21.43,0,*7F
1498273219.12,55505,17.44,73958.8,4.87,-16.75,-21.57,0,*72
1498273220.38,55506,17.44,73952.3,4.89,-16.65,-21.23,0,*7D
1498273221.63,55507,17.38,73958.3,4.87,-16.83,-21.57,0,*79
1498273222.85,55508,17.44,73946.8,4.87,-16.93,-21.63,0,*70
1498273224.07,55509,17.44,73936.5,4.87,-16.93,-21.73,0,*70
1498273225.26,55510,17.44,73932.8,4.85,-16.93,-21.73,0,*7A
1498273226.48,55511,17.44,73956.8,4.85,-17.07,-21.77,0,*73
1498273227.73,55512,17.44,73940.5,4.85,-17.03,-21.83,0,*7F
1498273228.96,55513,17.44,73946.5,4.85,-17.07,-21.77,0,*71
1498273230.18,55514,17.44,73942.3,4.87,-16.93,-21.73,0,*7C
1498273231.37,55515,17.44,73940.5,4.85,-16.89,-21.73,0,*74
1498273232.62,55516,17.44,73946.0,4.85,-16.69,-21.33,0,*7D
1498273233.88,55517,17.44,73948.5,4.81,-16.51,-21.23,0,*72
1498273235.07,55518,17.44,73946.5,4.81,-16.37,-21.09,0,*75
1498273236.27,55519,17.44,73944.5,4.81,-16.37,-21.09,0,*74
1498273237.53,55520,17.44,73948.0,4.81,-16.51,-21.23,0,*76
1498273238.76,55521,17.44,73952.0,4.85,-16.59,-21.27,0,*7F
1498273240.01,55522,17.44,73950.3,4.81,-16.65,-21.33,0,*72
1498273241.21,55523,17.44,73952.0,4.81,-16.75,-21.39,0,*78
1498273242.41,55524,17.44,73948.5,4.81,-16.75,-21.39,0,*7F
1498273243.64,55525,17.44,73948.8,4.81,-16.59,-21.33,0,*7A
1498273244.86,55526,17.44,73948.5,4.79,-16.75,-21.47,0,*73
1498273246.09,55527,17.44,73950.0,4.81,-16.65,-21.47,0,*74
1498273247.3,55528,17.44,73950.5,4.81,-16.75,-21.47,0,*7A
1498273248.52,55529,17.44,73946.8,4.81,-16.75,-21.53,0,*7E
1498273249.75,55530,17.44,73952.0,4.81,-16.75,-21.53,0,*76
1498273251.0,55531,17.44,73948.0,4.79,-16.75,-21.53,0,*70
1498273252.23,55532,17.44,73948.0,4.81,-16.75,-21.53,0,*74
1498273253.43,55533,17.44,73950.0,4.81,-16.79,-21.63,0,*7A
1498273254.65,55534,17.38,73944.5,4.81,-16.79,-21.53,0,*7E
1498273255.88,55535,17.44,73946.8,4.79,-16.37,-21.09,0,*7D
1498273257.15,55536,17.44,73950.3,4.79,-16.23,-21.03,0,*71
1498273258.35,55537,17.44,73952.0,4.81,-16.03,-20.73,0,*73
1498273259.57,55538,17.44,73950.5,4.81,-16.31,-21.09,0,*71
1498273260.82,55539,17.44,73950.8,4.79,-16.03,-20.83,0,*75
1498273262.03,55540,17.38,73948.8,4.81,-16.03,-20.89,0,*76
1498273263.25,55541,17.44,73950.0,4.79,-16.37,-21.09,0,*7E
1498273264.5,55542,17.44,73950.5,4.81,-16.23,-21.03,0,*75
1498273265.74,55543,17.44,73948.3,4.85,-16.13,-20.89,0,*70
1498273266.96,55544,17.44,73950.3,4.81,-15.99,-20.83,0,*78
1498273268.18,55545,17.44,73948.5,4.81,-15.99,-20.83,0,*79
1498273269.38,55546,17.44,73952.0,4.81,-15.99,-20.73,0,*75
1498273270.61,55547,17.44,73952.5,4.81,-16.09,-20.93,0,*70
1498273271.84,55548,17.44,73952.8,4.85,-15.85,-20.63,0,*73
1498273273.07,55549,17.44,73950.5,4.85,-15.67,-20.49,0,*76
1498273274.32,55550,17.44,73950.8,4.85,-15.85,-20.53,0,*79
1498273275.6,55551,17.44,73952.3,4.87,-15.85,-20.79,0,*72
1498273276.82,55552,17.44,73962.3,4.85,-15.81,-20.63,0,*7C
1498273278.08,55553,17.44,73952.5,4.87,-15.85,-20.69,0,*71
1498273279.32,55554,17.44,73954.8,4.89,-15.89,-20.79,0,*75
1498273280.57,55555,17.44,73952.8,4.87,-15.95,-20.79,0,*77
1498273281.85,55556,17.44,73950.5,4.87,-15.85,-20.53,0,*7D
1498273283.11,55557,17.44,73954.5,4.87,-15.67,-20.49,0,*7B
1498273284.36,55558,17.44,73952.8,4.87,-15.85,-20.69,0,*7A
1498273285.61,55559,17.38,73958.8,4.87,-15.95,-20.79,0,*7B
1498273286.83,55560,17.44,73958.8,4.89,-15.95,-20.83,0,*7A
1498273288.06,55561,17.44,73960.0,4.89,-16.13,-20.93,0,*77
1498273289.28,55562,17.44,73958.8,4.89,-15.95,-20.79,0,*7D
1498273290.49,55563,17.44,73962.8,4.89,-15.95,-20.79,0,*7C
1498273291.71,55564,17.44,73962.8,4.89,-16.23,-21.09,0,*73
1498273292.96,55565,17.44,73962.3,4.91,-16.31,-21.17,0,*77
1498273294.19,55566,17.44,73960.3,4.89,-16.37,-21.23,0,*7C
1498273295.44,55567,17.44,73960.5,4.87,-16.17,-21.13,0,*72
1498273296.67,55568,17.44,73958.0,4.87,-16.41,-21.43,0,*7B
1498273297.9,55569,17.38,73954.5,4.89,-16.37,-21.23,0,*73
1498273299.14,55570,17.38,73958.3,4.87,-16.31,-21.13,0,*70
1498273300.42,55571,17.44,73954.3,4.87,-16.31,-21.03,0,*70
1498273301.66,55572,17.44,73960.3,4.89,-16.17,-21.03,0,*79
1498273302.92,55573,17.44,73958.3,4.87,-16.17,-21.13,0,*77
1498273304.16,55574,17.38,73956.0,4.89,-15.89,-20.79,0,*77
1498273305.38,55575,17.44,73956.0,4.89,-15.95,-20.79,0,*7B
1498273306.61,55576,17.44,73954.8,4.91,-16.03,-20.93,0,*79
1498273307.83,55577,17.44,73954.5,4.89,-16.09,-20.93,0,*7B
1498273309.08,55578,17.38,73952.3,4.89,-15.89,-20.79,0,*7B
1498273310.3,55579,17.44,73952.5,4.89,-15.95,-20.83,0,*72
1498273311.54,55580,17.44,73952.8,4.89,-15.81,-20.79,0,*74
1498273312.79,55581,17.44,73954.5,4.89,-15.89,-20.83,0,*78
1498273314.02,55582,17.44,73956.8,4.89,-15.89,-20.73,0,*74
1498273315.27,55583,17.44,73956.8,4.91,-15.85,-20.73,0,*70
1498273316.49,55584,17.44,73956.8,4.91,-15.75,-20.69,0,*73
1498273317.75,55585,17.44,73960.8,4.93,-15.89,-20.73,0,*78
1498273319.0,55586,17.38,73962.5,4.89,-15.81,-20.79,0,*72
1498273320.25,55587,17.44,73966.3,4.91,-15.89,-20.89,0,*7D
1498273321.48,55588,17.44,73956.8,4.89,-16.13,-21.13,0,*79
1498273322.7,55589,17.44,73964.5,4.89,-16.37,-21.27,0,*79
1498273323.95,55590,17.44,73960.3,4.89,-16.51,-21.27,0,*71
1498273325.2,55591,17.38,73956.5,4.91,-16.09,-21.09,0,*78
1498273326.46,55592,17.44,73956.3,4.89,-16.09,-21.23,0,*7A
1498273327.71,55593,17.44,73952.3,4.91,-15.89,-20.93,0,*73
1498273328.93,55594,17.44,73950.0,4.89,-15.75,-20.79,0,*7A
1498273330.13,55595,17.44,73950.5,4.89,-15.95,-20.93,0,*71
1498273331.36,55596,17.44,73944.8,4.89,-15.89,-20.73,0,*71
1498273332.58,55597,17.44,73950.3,4.89,-15.39,-20.29,0,*74
1498273333.8,55598,17.38,73946.8,4.89,-15.25,-20.15,0,*79
1498273335.04,55599,17.44,73954.8,4.91,-15.29,-20.15,0,*7D
1498273336.27,55600,17.44,73956.0,4.91,-15.49,-20.59,0,*70
1498273337.52,55601,17.38,73954.3,4.91,-15.57,-20.59,0,*7E
1498273338.75,55602,17.44,73958.3,4.91,-15.75,-20.69,0,*7E
1498273339.97,55603,17.44,73958.5,4.91,-15.75,-20.73,0,*74
1498273341.2,55604,17.44,73960.3,4.91,-15.75,-20.73,0,*73
1498273342.43,55605,17.44,73964.8,4.91,-15.71,-20.69,0,*7D
1498273343.66,55606,17.44,73968.3,4.93,-15.63,-20.63,0,*75
1498273344.92,55607,17.44,73964.5,4.95,-15.39,-20.19,0,*70
1498273346.15,55608,17.44,73972.0,4.93,-15.15,-20.09,0,*76
1498273347.37,55609,17.38,73972.0,4.95,-14.69,-19.65,0,*7B
1498273348.66,55610,17.44,73962.0,4.97,-14.51,-19.57,0,*7B
1498273349.88,55611,17.44,73972.0,4.97,-14.89,-19.91,0,*75
1498273351.11,55612,17.44,73972.8,4.97,-15.67,-20.63,0,*70
1498273352.34,55613,17.44,73954.5,4.97,-15.71,-20.63,0,*76
1498273353.57,55614,17.44,73926.3,4.99,-15.67,-20.79,0,*73
1498273354.76,55615,17.44,73922.5,4.99,-15.95,-21.09,0,*79
1498273355.99,55616,17.44,73958.0,4.97,-16.41,-21.47,0,*74
1498273357.22,55617,17.44,73966.5,4.97,-16.41,-21.43,0,*71
1498273358.48,55618,17.38,73942.3,4.97,-15.81,-20.89,0,*76
1498273359.75,55619,17.38,73942.8,4.97,-15.89,-21.03,0,*7C
1498273360.99,55620,17.44,73952.3,4.99,-16.13,-21.13,0,*79
1498273362.25,55621,17.44,73956.8,4.99,-16.13,-21.23,0,*7B
1498273363.53,55622,17.44,73958.0,4.97,-16.17,-21.27,0,*76
1498273364.8,55623,17.44,73954.3,4.99,-16.13,-21.23,0,*79
1498273366.03,55624,17.38,73954.0,4.97,-16.03,-21.17,0,*76
1498273367.27,55625,17.44,73956.8,4.95,-15.89,-20.89,0,*72
1498273368.49,55626,17.44,73956.0,4.97,-15.67,-20.73,0,*76
1498273369.72,55627,17.38,73954.3,4.97,-15.67,-20.63,0,*76
1498273370.98,55628,17.44,73954.8,4.97,-15.53,-20.53,0,*7D
1498273372.2,55629,17.44,73956.5,4.97,-15.71,-20.69,0,*75
1498273373.45,55630,17.44,73956.5,4.97,-15.29,-20.35,0,*79
1498273374.68,55631,17.44,73954.8,4.99,-15.35,-20.43,0,*7A
1498273375.91,55632,17.44,73962.5,4.97,-15.71,-20.73,0,*74
1498273377.16,55633,17.44,73962.3,4.97,-15.57,-20.63,0,*70
1498273378.41,55634,17.44,73962.0,4.97,-15.29,-20.35,0,*7D
1498273379.66,55635,17.44,73968.3,4.97,-14.79,-19.75,0,*76
1498273380.89,55636,17.38,73956.0,4.99,-14.65,-19.61,0,*73
1498273382.13,55637,17.44,73962.0,4.99,-14.93,-19.85,0,*71
1498273383.38,55638,17.38,73950.3,5.01,-15.35,-20.29,0,*7F
1498273384.64,55639,17.44,73952.3,5.01,-15.43,-20.39,0,*7E
1498273385.92,55640,17.38,73942.5,5.01,-15.57,-20.53,0,*79
1498273387.17,55641,17.44,73940.5,5.01,-15.75,-20.79,0,*70
1498273388.42,55642,17.38,73952.3,5.01,-16.09,-21.17,0,*72
1498273389.67,55643,17.44,73960.8,5.01,-16.31,-21.47,0,*7D
1498273390.91,55644,17.44,73954.3,5.01,-16.31,-21.47,0,*7A
1498273392.16,55645,17.44,73952.0,5.01,-16.23,-21.39,0,*71
1498273393.44,55646,17.44,73958.0,5.01,-16.23,-21.23,0,*79
1498273394.69,55647,17.44,73950.5,5.01,-16.31,-21.39,0,*70
1498273395.94,55648,17.44,73952.5,4.99,-16.51,-21.53,0,*75
1498273397.19,55649,17.44,73954.3,4.99,-16.51,-21.57,0,*70
1498273398.41,55650,17.38,73954.8,4.97,-16.45,-21.63,0,*74
1498273399.64,55651,17.38,73954.3,4.97,-16.45,-21.47,0,*73
1498273400.87,55652,17.44,73956.5,4.99,-16.51,-21.63,0,*7D
1498273402.09,55653,17.38,73956.5,4.97,-16.45,-21.63,0,*77
1498273403.32,55654,17.44,73958.5,4.99,-16.41,-21.57,0,*7D
1498273404.52,55655,17.44,73960.8,4.95,-16.41,-21.63,0,*77
1498273405.73,55656,17.38,73956.3,4.95,-16.45,-21.63,0,*70
1498273406.97,55657,17.38,73958.8,4.95,-16.31,-21.57,0,*75
1498273408.23,55658,17.38,73956.0,4.93,-16.23,-21.39,0,*77
1498273409.48,55659,17.38,73954.0,4.95,-16.17,-21.33,0,*7D
1498273410.69,55660,17.44,73954.8,4.95,-16.03,-21.17,0,*74
1498273411.95,55661,17.44,73952.5,4.95,-16.13,-21.27,0,*77
1498273413.15,55662,17.44,73954.5,4.95,-15.99,-21.13,0,*72
1498273414.41,55663,17.44,73954.5,4.95,-15.89,-21.03,0,*73
1498273415.65,55664,17.44,73948.5,4.95,-15.85,-20.89,0,*7B
1498273416.85,55665,17.44,73952.0,4.95,-15.71,-20.73,0,*74
1498273418.09,55666,17.44,73948.8,4.95,-15.43,-20.63,0,*77
1498273419.32,55667,17.44,73952.8,4.97,-15.53,-20.63,0,*75
1498273420.55,55668,17.38,73946.8,4.99,-15.39,-20.43,0,*7A
1498273421.78,55669,17.44,73950.5,4.99,-15.25,-20.35,0,*77
1498273423.01,55670,17.44,73954.0,4.97,-15.53,-20.63,0,*73
1498273424.26,55671,17.44,73954.8,5.01,-15.21,-20.29,0,*77
1498273425.49,55672,17.38,73952.8,4.97,-15.15,-20.25,0,*71
1498273426.71,55673,17.44,73946.3,4.99,-14.79,-19.75,0,*7A
1498273427.93,55674,17.44,73946.0,4.99,-14.97,-19.99,0,*7F
1498273429.14,55675,17.44,73944.8,4.99,-15.53,-20.69,0,*72
1498273430.39,55676,17.44,73942.3,5.01,-15.63,-20.79,0,*73
1498273431.66,55677,17.44,73946.3,5.01,-16.09,-21.33,0,*72
1498273432.91,55678,17.44,73946.0,5.01,-16.23,-21.39,0,*7F
1498273434.16,55679,17.44,73946.5,5.01,-16.31,-21.39,0,*7D
1498273435.41,55680,17.44,73946.5,5.01,-16.09,-21.39,0,*70
1498273436.67,55681,17.44,73948.8,4.99,-15.85,-20.99,0,*7D
1498273437.9,55682,17.44,73948.0,4.99,-15.75,-20.83,0,*7A
1498273439.13,55683,17.44,73950.5,4.99,-15.63,-20.79,0,*79
1498273440.34,55684,17.44,73948.5,4.99,-15.53,-20.63,0,*76
1498273441.55,55685,17.38,73942.8,4.99,-15.53,-20.69,0,*7D
1498273442.8,55686,17.38,73942.3,5.01,-15.43,-20.59,0,*7C
1498273444.06,55687,17.44,73944.0,5.03,-15.35,-20.53,0,*74
1498273445.31,55688,17.44,73946.5,5.03,-15.35,-20.53,0,*7B
1498273446.54,55689,17.38,73940.8,5.01,-15.15,-20.29,0,*77
1498273447.76,55690,17.44,73942.5,5.01,-15.15,-20.29,0,*7F
1498273448.99,55691,17.44,73938.8,5.07,-14.79,-20.09,0,*71
1498273450.21,55692,17.44,73944.3,5.03,-14.93,-19.99,0,*71
1498273451.4,55693,17.44,73948.5,5.03,-14.69,-19.71,0,*73
1498273452.65,55694,17.44,73956.3,5.09,-14.43,-19.51,0,*74
1498273453.87,55695,17.38,73912.5,5.09,-14.65,-19.91,0,*7D
1498273455.15,55696,17.44,73928.5,5.09,-15.39,-20.53,0,*72
1498273456.42,55697,17.38,73926.0,5.09,-15.85,-21.03,0,*70
1498273457.65,55698,17.44,73940.5,5.07,-16.13,-21.43,0,*79
1498273458.88,55699,17.38,73904.5,5.07,-15.89,-21.17,0,*79
1498273460.11,55700,17.44,73902.0,5.07,-15.89,-21.17,0,*78
1498273461.36,55701,17.38,73912.3,5.09,-16.13,-21.43,0,*76
1498273462.58,55702,17.44,73916.3,5.07,-16.31,-21.63,0,*79
1498273463.81,55703,17.38,73914.3,5.07,-16.45,-21.67,0,*7F
1498273465.01,55704,17.38,73924.0,5.07,-16.45,-21.63,0,*7C
1498273466.23,55705,17.44,73928.8,5.03,-16.51,-21.73,0,*7D
1498273467.46,55706,17.38,73928.5,5.03,-16.59,-21.87,0,*7D
1498273468.69,55707,17.44,73940.3,5.03,-16.59,-21.87,0,*7C
1498273469.93,55708,17.44,73942.0,5.01,-16.51,-21.73,0,*72
1498273471.18,55709,17.38,73940.5,5.01,-16.37,-21.57,0,*75
1498273472.4,55710,17.38,73936.0,5.01,-15.95,-21.17,0,*72
1498273473.66,55711,17.38,73928.3,5.01,-15.89,-21.17,0,*7E
1498273474.86,55712,17.44,73936.5,5.03,-15.95,-21.17,0,*72
1498273476.1,55713,17.38,73928.0,5.01,-15.81,-21.09,0,*7B
1498273477.38,55714,17.44,73934.3,4.97,-16.13,-21.33,0,*73
1498273478.61,55715,17.38,73940.0,4.99,-16.13,-21.43,0,*7B
1498273479.84,55716,17.38,73946.8,4.99,-16.37,-21.57,0,*7B
1498273481.06,55717,17.44,73950.5,4.99,-16.27,-21.63,0,*7C
1498273482.29,55718,17.44,73948.0,4.99,-16.37,-21.57,0,*75
1498273483.52,55719,17.38,73952.3,4.99,-16.37,-21.53,0,*70
1498273484.74,55720,17.38,73948.0,4.99,-16.27,-21.43,0,*7A
1498273485.99,55721,17.38,73944.8,4.97,-16.31,-21.47,0,*76
1498273487.22,55722,17.44,73948.5,4.99,-16.13,-21.39,0,*72
1498273488.48,55723,17.38,73948.5,5.01,-15.57,-20.63,0,*7E
1498273489.71,55724,17.44,73948.5,4.99,-15.75,-20.83,0,*77
1498273490.96,55725,17.44,73948.3,5.01,-15.71,-20.79,0,*77
1498273492.18,55726,17.38,73946.3,5.01,-15.71,-20.93,0,*70
1498273493.41,55727,17.38,73944.5,5.01,-15.63,-20.73,0,*7C
1498273494.63,55728,17.38,73942.5,5.01,-15.07,-20.25,0,*72
1498273495.86,55729,17.38,73950.0,5.01,-15.07,-20.25,0,*73
1498273497.11,55730,17.38,73950.5,5.01,-15.21,-20.39,0,*72
1498273498.39,55731,17.44,73952.3,5.01,-15.43,-20.53,0,*7B
1498273499.62,55732,17.44,73954.5,5.03,-15.49,-20.53,0,*70
1498273500.82,55733,17.44,73952.3,5.07,-14.89,-20.05,0,*7B
1498273502.04,55734,17.44,73956.3,5.07,-14.65,-19.65,0,*72
1498273503.29,55735,17.38,73958.8,5.09,-14.55,-19.75,0,*7F
1498273504.54,55736,17.44,73950.5,5.07,-15.01,-20.19,0,*72
1498273505.76,55737,17.38,73948.8,5.09,-15.53,-20.69,0,*7D
1498273507.01,55738,17.38,73934.0,5.09,-15.67,-20.83,0,*71
1498273508.27,55739,17.44,73916.5,5.11,-15.39,-20.49,0,*74
1498273509.49,55740,17.44,73912.0,5.11,-14.79,-19.91,0,*70
1498273510.71,55741,17.44,73914.8,5.11,-14.83,-19.91,0,*74
1498273511.96,55742,17.44,73924.8,5.11,-15.35,-20.35,0,*7F
1498273513.21,55743,17.44,73890.5,5.13,-15.57,-20.73,0,*7A
1498273514.45,55744,17.38,73898.0,5.13,-15.81,-21.17,0,*75
1498273515.67,55745,17.38,73896.8,5.11,-16.03,-21.33,0,*79
1498273516.92,55746,17.44,73908.0,5.13,-16.31,-21.39,0,*73
1498273518.12,55747,17.44,73912.5,5.11,-16.41,-21.47,0,*7E
1498273519.32,55748,17.44,73928.0,5.11,-16.59,-21.77,0,*7B
1498273520.57,55749,17.44,73948.8,5.11,-16.69,-21.87,0,*76
1498273521.8,55750,17.38,73942.5,5.11,-16.69,-21.93,0,*7B
1498273523.05,55751,17.44,73932.5,5.09,-16.79,-21.97,0,*76
1498273524.3,55752,17.44,73932.8,5.09,-16.79,-21.97,0,*75
1498273525.52,55753,17.44,73942.3,5.11,-16.75,-21.87,0,*70
1498273526.75,55754,17.44,73938.8,5.09,-16.75,-21.93,0,*7B
1498273527.98,55755,17.44,73938.5,5.07,-16.75,-21.97,0,*70
1498273529.18,55756,17.44,73940.0,5.07,-16.59,-21.93,0,*79
1498273530.41,55757,17.44,73938.8,5.07,-16.65,-21.77,0,*7D
1498273531.64,55758,17.38,73944.0,5.07,-16.45,-21.67,0,*71
1498273532.85,55759,17.38,73934.5,5.03,-15.71,-20.89,0,*71
1498273534.08,55760,17.44,73944.8,5.09,-15.67,-20.73,0,*73
1498273535.29,55761,17.44,73944.8,5.03,-15.71,-20.89,0,*7A
1498273536.52,55762,17.38,73930.0,5.03,-15.75,-21.03,0,*7E
1498273537.75,55763,17.44,73934.8,5.07,-16.03,-21.27,0,*7F
1498273538.97,55764,17.44,73940.5,5.07,-16.27,-21.43,0,*7C
1498273540.19,55765,17.44,73942.8,5.07,-16.17,-21.43,0,*7E
1498273541.42,55766,17.38,73940.8,5.07,-16.13,-21.43,0,*79
1498273542.67,55767,17.38,73942.0,5.07,-16.17,-21.33,0,*7B
1498273543.9,55768,17.38,73938.5,5.07,-16.03,-21.27,0,*74
1498273545.1,55769,17.38,73944.5,5.03,-15.95,-21.17,0,*7E
1498273546.33,55770,17.44,73932.0,5.03,-15.57,-20.73,0,*7B
1498273547.58,55771,17.38,73940.8,5.03,-15.57,-20.79,0,*70
1498273548.8,55772,17.44,73944.5,5.03,-16.03,-21.33,0,*7E
1498273550.05,55773,17.44,73946.5,5.07,-16.13,-21.33,0,*7A
1498273551.28,55774,17.38,73946.0,5.07,-15.89,-21.17,0,*7B
1498273552.5,55775,17.38,73940.0,5.03,-15.75,-20.89,0,*7B
1498273553.7,55776,17.38,73944.0,5.07,-15.67,-20.89,0,*7F
1498273554.93,55777,17.38,73944.0,5.07,-15.57,-20.69,0,*73
1498273556.13,55778,17.44,73950.3,5.07,-15.11,-20.25,0,*76
1498273557.37,55779,17.38,73950.8,5.09,-15.11,-20.19,0,*76
1498273558.59,55780,17.44,73954.5,5.11,-15.11,-20.35,0,*77
1498273559.84,55781,17.44,73948.3,5.09,-15.57,-20.59,0,*77
1498273561.09,55782,17.38,73956.8,5.13,-15.35,-20.63,0,*72
1498273562.32,55783,17.44,73956.0,5.11,-15.39,-20.69,0,*77
1498273563.57,55784,17.44,73962.3,5.13,-15.43,-20.59,0,*7C
1498273564.81,55785,17.44,73960.8,5.09,-14.97,-20.09,0,*7B
1498273566.09,55786,17.44,73958.0,5.09,-14.51,-19.61,0,*76
1498273567.37,55787,17.38,73952.0,5.13,-14.43,-19.65,0,*7B
1498273568.65,55788,17.38,73958.0,5.13,-14.47,-19.65,0,*70
1498273569.9,55789,17.38,73960.8,5.17,-14.11,-19.27,0,*70
1498273571.13,55790,17.44,73956.3,5.17,-14.23,-19.37,0,*78
1498273572.35,55791,17.38,73954.8,5.17,-14.61,-19.91,0,*73
1498273573.56,55792,17.44,73960.0,5.19,-14.89,-20.25,0,*7D
1498273574.76,55793,17.38,73958.8,5.19,-14.61,-19.95,0,*7B
1498273576.0,55794,17.44,73934.5,5.19,-14.97,-20.35,0,*75
1498273577.27,55795,17.38,73930.3,5.21,-15.21,-20.49,0,*78
1498273578.48,55796,17.44,73924.3,5.19,-15.25,-20.39,0,*73
1498273579.69,55797,17.38,73932.5,5.19,-15.25,-20.43,0,*7F
1498273580.93,55798,17.44,73944.0,5.21,-15.11,-20.35,0,*7D
1498273582.15,55799,17.44,73944.8,5.21,-15.11,-20.39,0,*70
1498273583.37,55800,17.44,73954.3,5.21,-15.11,-20.39,0,*7F
1498273584.64,55801,17.44,73960.8,5.21,-14.93,-20.19,0,*77
1498273585.84,55802,17.38,73938.5,5.23,-15.07,-20.39,0,*78
1498273587.05,55803,17.38,73900.0,5.23,-15.25,-20.63,0,*76
1498273588.24,55804,17.44,73916.8,5.23,-15.67,-21.09,0,*7A
1498273589.45,55805,17.38,73932.0,5.23,-15.57,-21.13,0,*73
1498273590.69,55806,17.38,73928.5,5.25,-15.75,-21.23,0,*75
1498273591.94,55807,17.38,73942.3,5.21,-16.13,-21.43,0,*75
1498273593.19,55808,17.44,73956.0,5.21,-16.09,-21.43,0,*71
1498273594.41,55809,17.38,73942.0,5.23,-15.71,-21.27,0,*7C
1498273595.61,55810,17.44,73950.3,5.23,-15.67,-21.13,0,*74
1498273596.88,55811,17.44,73942.3,5.21,-15.57,-20.99,0,*77
1498273598.07,55812,17.38,73940.8,5.19,-15.71,-21.13,0,*78
1498273599.33,55813,17.38,73942.0,5.19,-15.85,-21.27,0,*75
1498273600.6,55814,17.44,73946.0,5.21,-15.81,-21.27,0,*7D
1498273601.84,55815,17.38,73940.0,5.21,-15.57,-21.13,0,*70
1498273603.09,55816,17.38,73934.5,5.19,-15.57,-21.03,0,*79
1498273604.32,55817,17.38,73934.8,5.19,-15.53,-21.03,0,*7C
1498273605.56,55818,17.38,73936.3,5.21,-15.57,-21.09,0,*76
1498273606.76,55819,17.44,73944.0,5.19,-15.63,-21.13,0,*70
1498273607.99,55820,17.38,73940.0,5.19,-15.43,-20.89,0,*7A
1498273609.2,55821,17.38,73940.5,5.19,-15.29,-20.69,0,*79
1498273610.4,55822,17.44,73946.8,5.19,-15.25,-20.43,0,*7E
1498273611.63,55823,17.38,73942.8,5.19,-14.75,-20.25,0,*7B
1498273612.88,55824,17.44,73944.8,5.21,-14.37,-19.61,0,*7B
1498273614.13,55825,17.44,73948.5,5.21,-14.37,-19.85,0,*70
1498273615.35,55826,17.44,73944.0,5.23,-14.37,-19.85,0,*71
1498273616.59,55827,17.44,73948.8,5.23,-14.93,-20.35,0,*7F
1498273617.82,55828,17.44,73940.5,5.25,-14.93,-20.43,0,*77
1498273619.05,55829,17.38,73936.5,5.23,-14.83,-20.29,0,*7D
1498273620.28,55830,17.38,73934.0,5.25,-14.47,-20.09,0,*79
1498273621.51,55831,17.38,73932.3,5.25,-14.29,-19.65,0,*70
1498273622.77,55832,17.38,73936.5,5.25,-14.05,-19.41,0,*7B
1498273624.02,55833,17.38,73936.8,5.25,-14.43,-19.85,0,*70
1498273625.24,55834,17.44,73946.3,5.29,-14.43,-20.05,0,*79
1498273626.52,55835,17.38,73940.3,5.31,-14.75,-20.19,0,*79
1498273627.76,55836,17.38,73938.8,5.29,-15.01,-20.53,0,*7F
1498273628.99,55837,17.38,73944.0,5.31,-15.25,-20.73,0,*73
1498273630.22,55838,17.38,73946.3,5.31,-15.29,-20.89,0,*75
1498273631.45,55839,17.44,73952.3,5.31,-14.89,-20.29,0,*75
1498273632.68,55840,17.38,73956.8,5.31,-14.11,-19.47,0,*78
1498273633.93,55841,17.44,73966.8,5.31,-13.87,-19.37,0,*76
1498273635.18,55842,17.44,73942.5,5.33,-13.83,-19.41,0,*72
1498273636.41,55843,17.44,73938.5,5.35,-14.65,-20.25,0,*72
1498273637.66,55844,17.38,73942.8,5.35,-15.35,-20.93,0,*7C
1498273638.88,55845,17.38,73954.3,5.33,-15.57,-21.13,0,*76
1498273640.1,55846,17.44,73956.0,5.33,-15.43,-21.13,0,*70
1498273641.33,55847,17.44,73952.3,5.33,-15.35,-20.93,0,*79
1498273642.6,55848,17.38,73946.8,5.35,-15.21,-20.79,0,*71
1498273643.82,55849,17.44,73950.5,5.33,-15.39,-20.93,0,*7B
1498273645.05,55850,17.38,73948.5,5.35,-15.53,-21.09,0,*7B
1498273646.28,55851,17.44,73944.5,5.35,-15.67,-21.17,0,*72
1498273647.5,55852,17.38,73950.8,5.33,-15.71,-21.27,0,*73
1498273648.72,55853,17.38,73944.5,5.33,-15.43,-21.13,0,*74
1498273649.95,55854,17.44,73948.0,5.29,-15.43,-21.17,0,*7C
1498273651.14,55855,17.44,73948.8,5.33,-15.53,-21.09,0,*78
1498273652.39,55856,17.44,73954.8,5.31,-15.57,-21.13,0,*76
1498273653.64,55857,17.38,73946.8,5.31,-15.71,-21.23,0,*70
1498273654.87,55858,17.44,73948.3,5.31,-15.49,-21.13,0,*77
1498273656.1,55859,17.38,73948.5,5.29,-15.39,-20.89,0,*7A
1498273657.29,55860,17.38,73948.5,5.29,-15.49,-21.13,0,*75
1498273658.55,55861,17.44,73950.0,5.29,-15.57,-21.23,0,*78
1498273659.77,55862,17.38,73950.0,5.29,-15.43,-21.13,0,*7D
1498273661.02,55863,17.44,73954.0,5.29,-15.39,-21.03,0,*70
1498273662.25,55864,17.38,73950.8,5.29,-14.47,-20.05,0,*78
1498273663.5,55865,17.38,73944.0,5.29,-14.01,-19.61,0,*73
1498273664.72,55866,17.38,73946.0,5.29,-13.73,-19.23,0,*74
1498273665.95,55867,17.38,73946.5,5.33,-13.97,-19.47,0,*76
1498273667.21,55868,17.44,73946.8,5.33,-13.97,-19.57,0,*78
1498273668.5,55869,17.38,73940.8,5.35,-14.05,-19.57,0,*73
1498273669.79,55870,17.38,73944.0,5.35,-14.05,-19.61,0,*7E
1498273671.02,55871,17.38,73950.3,5.35,-14.11,-19.71,0,*7B
1498273672.22,55872,17.38,73946.3,5.37,-14.29,-19.95,0,*7B
1498273673.46,55873,17.38,73950.0,5.37,-14.51,-20.09,0,*7A
1498273674.68,55874,17.44,73950.0,5.37,-14.65,-20.19,0,*7B
1498273675.9,55875,17.38,73948.8,5.37,-14.79,-20.29,0,*74
1498273677.15,55876,17.38,73948.3,5.37,-14.51,-20.15,0,*72
1498273678.35,55877,17.38,73950.3,5.37,-14.65,-20.09,0,*79
1498273679.6,55878,17.44,73948.8,5.37,-14.51,-20.15,0,*7C
1498273680.83,55879,17.38,73950.5,5.41,-14.55,-19.95,0,*7A
1498273682.03,55880,17.44,73952.5,5.41,-14.61,-20.25,0,*7A
1498273683.22,55881,17.44,73956.0,5.41,-14.69,-20.29,0,*7F
1498273684.42,55882,17.44,73950.5,5.41,-14.89,-20.43,0,*7E
1498273685.66,55883,17.44,73952.3,5.41,-14.83,-20.43,0,*75
1498273686.91,55884,17.38,73948.5,5.37,-14.51,-20.15,0,*7F
1498273688.13,55885,17.44,73952.5,5.41,-14.29,-19.81,0,*77
1498273689.33,55886,17.44,73956.0,5.41,-14.33,-19.95,0,*7A
1498273690.57,55887,17.44,73958.0,5.41,-14.83,-20.39,0,*7C
1498273691.76,55888,17.38,73952.0,5.41,-14.61,-20.09,0,*7C
1498273692.99,55889,17.44,73954.3,5.41,-14.43,-19.95,0,*72
1498273694.19,55890,17.38,73954.5,5.41,-14.33,-19.95,0,*7D
1498273695.42,55891,17.38,73952.8,5.41,-14.23,-19.81,0,*78
1498273696.64,55892,17.44,73956.0,5.43,-14.29,-19.91,0,*72
1498273697.87,55893,17.38,73954.3,5.43,-14.19,-19.75,0,*7A
1498273699.1,55894,17.38,73952.0,5.43,-14.29,-19.91,0,*74
1498273700.32,55895,17.44,73954.0,5.43,-14.37,-19.91,0,*7A
1498273701.55,55896,17.38,73950.0,5.45,-14.19,-19.81,0,*72